Погода в Большой Ижоре

Россия / Санкт-Петербург и Ленинградская область     59°56′44″N   29°34′09″E
темп.,
°C
ветер,
м/с
пор.,
м/с
влажн.,
%
обл.,
%
осадки,
мм/ч
давл.,
гПа
погр.,
м
25 июля, вс
вс2500:00+16юз566398 0.0 1017226
03:00+16юз51059100 0.0 1016352
06:00+17зюз7126777 0.1 1016447
09:00+18зюз797592 0.1 1017469
12:00+19з787470 0.0 1018603
15:00+19з78725 0.0 1018550
18:00+19з46675 0.0 1019303
21:00+18з347014 0.0 101958
26 июля, пн
пн2600:00+18зюз337199 0.0 102029
03:00+18юз4467100 0.0 102070
06:00+18зюз456857 0.0 102097
09:00+19зюз456828 0.0 1020127
12:00+20зсз566819 0.0 1021441
15:00+20з56729 0.0 1021360
18:00+21зсз56695 0.0 1020251
21:00+19зсз22734 0.0 102013
27 июля, вт
вт2700:00+19ююз22690 0.0 102014
03:00+18ююв11720 0.0 102111
06:00+18ююв23700 0.0 102036
09:00+21юв01645 0.0 1020149
12:00+22св33605 0.0 1019653
15:00+23св335510 0.0 1018445
18:00+25с334921 0.0 1016217
21:00+23в555930 0.0 101540
28 июля, ср
ср2800:00+20юв346642 0.0 101547
03:00+19вюв457160 0.0 101452
06:00+19вюв45715 0.0 101368
09:00+22вюв4562100 0.0 1011151
12:00+24в455364 0.0 1009647
15:00+25в555288 0.0 1007538
18:00+25юв455393 0.0 1005386
21:00+20зсз1180100 1.0 100615
29 июля, чт
чт2900:00+19ююз3593100 0.3 1005114
03:00+19ю4693100 0.4 1004157
06:00+18юз589558 4.3 1003336
09:00+19юз6985100 4.3 1002393
12:00+21зюз9137283 0.8 1002586
15:00+20з11167413 1.7 1002739
18:00+20з1219720 0.2 1002821
21:00+19зюз1319730 0.2 1002811